Location: ??
(31.9467°N, 34.8903°E)
Time: 01:22:06
(UTC+00:00)

Atlas Centaur 2 - Pass Details

Date: 29 October 2020
Orbit: 459 x 1309 km, 30.4° (Epoch: 25 November)

Event Time Altitude Azimuth Distance (km) Brightness Sun altitude
Rises 15:29:02 0° 258° (WSW) 4,008 8.3 -8.2°
Reaches altitude 10° 15:31:44 10° 257° (WSW) 3,134 6.9 -8.8°
Maximum altitude 15:39:49 77° 173° (S) 1,323 3.2 -10.5°
Enters shadow 15:47:19 15° 89° (E) 2,969 4.4 -12.1°
